Temperature
16 16 16 16 16 15 15 15 15 15 15 15 15 15 15 15 15 15 15 14 14 14 14 14 14 14 14 14 14 14 14 14 14 14 14 14 13 13 13 13 13 13 13
16 16 16 15 15 15 15 15 15 15 15 15 15 14 14 14 14 14 14 14 14 14 14 14 14 14 14 14 14 14 14 14 14 14 13 13 13 13 13 13 13 13 13
15 15 15 15 15 15 15 15 15 15 14 14 14 14 14 14 14 14 14 14 14 14 14 14 14 14 14 14 14 14 14 14 13 14 13 13 13 13 13 13 13 13 13
15 15 15 15 15 15 15 15 14 14 14 14 14 14 14 14 14 14 14 14 14 14 14 14 14 13 13 13 13 13 13 13 13 13 13 13 13 13 13 13 13 13 13
15 15 15 15 15 15 14 14 14 14 14 14 14 14 14 14 14 14 14 14 14 14 13 13 13 13 13 13 13 13 13 13 13 13 13 13 13 13 13 13 13 13 13
15 15 14 14 14 14 14 14 14 14 14 14 14 14 14 14 14 14 14 13 13 13 13 13 13 13 13 13 13 13 13 13 13 13 13 13 12 13 12 13 13 13 13
15 14 14 14 14 14 14 14 14 14 14 14 14 14 14 14 14 14 14 13 13 13 13 13 13 13 13 13 13 13 13 13 13 13 12 12 12 12 12 12 12 12 12
14 14 14 14 14 14 14 14 14 14 14 13 13 13 13 14 14 14 13 13 13 13 13 13 13 13 12 12 12 12 12 12 12 12 12 12 12 12 12 12 12 12 12
14 14 14 14 14 14 14 14 14 14 13 13 13 13 13 13 13 13 13 13 13 12 12 12 12 12 12 12 12 12 12 12 12 12 12 12 12 12 12 12 12 12 12
14 14 14 14 14 14 14 14 14 14 13 13 13 13 13 13 13 13 13 13 12 12 12 12 12 12 12 12 12 12 12 12 12 12 12 12 12 12 12 12 12 12 12
14 14 13 13 13 13 13 13 14 13 13 13 13 13 13 13 13 13 12 12 12 12 12 12 12 12 12 12 12 12 12 12 12 12 12 11 11 11 11 11 11 11 11
13 13 13 13 13 13 13 13 13 13 13 13 13 13 13 12 12 12 12 12 12 12 12 12 12 12 12 12 12 12 12 11 11 11 12 11 11 11 11 11 11 11 11
13 13 13 13 13 13 13 13 13 13 13 13 13 13 13 12 12 12 12 12 12 12 11 12 12 12 12 11 11 11 11 11 11 11 12 11 11 11 11 11 11 11 11
13 13 13 13 13 13 13 13 13 13 13 13 13 13 13 12 12 12 12 12 12 12 11 12 12 11 11 11 11 11 11 11 11 11 11 11 11 11 11 11 11 11 11
12 12 13 13 13 13 13 13 13 13 13 12 13 12 12 12 12 12 12 11 11 11 11 11 11 11 11 11 11 11 11 11 11 11 11 11 11 11 11 11 10 10 11
12 12 13 13 13 13 13 12 12 12 12 12 12 12 12 12 12 12 12 11 11 11 11 11 11 11 11 11 11 11 11 11 11 11 11 11 11 11 11 10 10 10 11
12 12 13 13 13 13 12 13 12 12 12 12 12 12 12 12 12 12 11 11 11 11 11 11 11 11 11 11 11 11 11 11 10 10 10 10 10 10 10 10 10 10 10
12 12 12 12 12 12 12 12 12 12 12 12 12 11 11 11 11 11 11 11 11 11 11 11 11 11 11 11 11 11 10 10 10 10 10 10 10 10 10 10 10 10 10
11 12 12 12 12 12 12 12 12 12 12 12 12 11 11 11 11 11 11 11 11 11 11 11 11 10 10 10 10 10 10 10 10 10 10 10 10 10 10 10 10 10 10
11 11 11 12 12 12 12 12 12 12 11 11 11 11 11 11 11 11 11 10 11 11 11 10 10 10 10 10 10 10 10 10 10 10 10 10 10 10 10 9 10 10 10
11 11 11 11 11 11 11 11 11 11 11 11 11 11 11 11 11 10 10 10 10 10 10 10 10 10 10 10 10 10 10 10 10 10 10 9 9 9 9 9 9 9 9
11 11 11 11 11 11 11 10 11 11 11 11 11 10 10 10 10 10 10 10 10 10 10 10 10 10 9 9 9 10 9 9 9 9 9 9 9 9 9 9 9 9 9
10 11 10 10 10 10 10 10 10 10 10 10 10 10 10 10 10 10 10 10 9 10 9 9 9 9 9 9 9 9 9 9 9 9 9 9 9 9 9 9 8 8 8
10 10 10 10 10 10 10 10 10 10 10 10 10 10 10 9 9 9 9 9 9 9 9 9 9 9 9 9 9 9 9 9 9 8 8 8 8 8 8 8 8 8 8
10 10 10 10 10 10 10 10 9 9 9 9 9 9 9 9 9 9 9 9 9 9 9 9 8 8 8 8 8 8 8 8 8 8 8 8 8 8 8 8 8 8 8
9 9 9 10 10 9 9 9 9 9 9 9 9 9 9 9 9 9 8 8 8 8 8 8 8 8 8 8 8 8 8 8 8 8 7 7 7 7 7 7 7 7 7
Wind_Speed
6 6 5 5 4 4 4 4 3 3 3 4 3 3 3 3 2 2 1 1 1 1 1 1 1 2 1 1 2 2 2 2 2 1 0 1 1 1 0 1 2 2 4
7 6 5 5 4 4 4 4 3 3 3 4 4 3 3 3 3 2 1 1 1 1 0 1 1 0 0 1 1 1 1 1 2 1 1 1 1 1 1 2 1 2 2
7 6 6 5 5 4 4 4 3 3 4 4 4 4 3 3 3 2 2 1 1 1 1 1 0 0 0 0 1 1 1 1 1 1 1 1 1 0 1 1 1 1 2
7 7 6 5 5 5 4 4 4 4 4 4 4 4 4 3 2 2 2 2 2 1 1 1 1 1 1 0 1 1 1 1 1 2 1 2 1 1 1 1 1 1 1
7 6 6 5 5 5 5 4 4 4 4 4 4 4 3 3 2 2 2 3 2 2 2 2 2 3 4 2 1 0 0 1 1 2 1 1 1 1 1 1 1 1 1
7 6 6 6 6 5 4 4 4 4 4 4 4 4 4 3 4 2 0 3 2 2 2 2 3 4 3 3 4 4 3 1 1 0 0 0 1 1 1 2 2 2 2
7 7 7 6 6 5 5 5 4 4 4 4 4 4 4 5 4 2 1 1 2 2 2 2 2 3 2 2 2 2 1 2 2 1 1 1 1 1 2 2 2 3 3
6 7 7 6 6 6 5 5 5 4 4 4 3 3 3 4 4 2 1 2 2 2 2 2 2 2 2 1 1 2 2 2 1 1 1 2 2 2 3 3 4 4 4
7 6 6 6 6 6 5 5 5 4 4 4 3 3 3 4 5 3 1 2 2 2 2 2 1 2 3 1 1 2 1 1 3 3 2 1 2 2 3 3 3 3 3
7 6 6 6 6 5 5 4 4 4 4 4 4 3 4 4 5 3 2 2 2 2 3 3 3 2 2 0 1 1 1 0 1 1 1 2 2 2 3 3 3 4 4
6 6 6 6 5 5 4 4 4 4 4 4 4 3 3 3 6 4 2 2 1 1 1 2 3 5 3 0 2 1 1 2 2 2 1 1 1 1 2 2 3 4 4
6 6 6 6 5 5 5 4 5 5 5 5 4 4 3 4 4 5 4 2 2 1 0 1 3 5 2 1 1 0 2 4 3 2 1 1 1 1 1 1 2 3 4
6 6 6 5 5 4 5 6 6 5 4 4 4 4 3 3 5 8 7 5 3 2 1 3 3 3 3 3 3 3 4 3 3 2 2 1 1 1 2 2 2 3 3
5 5 5 5 5 4 4 4 4 4 4 4 4 4 4 4 3 3 4 5 5 4 2 4 6 6 5 2 3 3 3 2 3 3 3 2 2 2 2 2 3 3 3
6 5 5 4 4 4 3 2 3 2 2 3 3 3 4 4 3 3 2 3 2 1 1 2 2 3 3 3 2 2 3 3 3 3 3 3 3 3 3 3 3 4 4
5 5 4 4 3 3 3 3 3 1 3 2 0 2 2 3 5 4 3 2 2 3 3 3 3 3 3 3 2 2 2 2 3 3 3 3 3 3 3 3 4 4 5
4 4 4 4 4 4 3 3 3 2 3 3 3 3 3 4 5 5 5 4 5 6 5 4 3 3 3 3 3 3 3 3 3 3 3 4 4 4 4 4 4 5 5
4 4 4 4 4 4 4 3 3 3 3 3 3 5 6 6 6 6 6 6 5 6 5 4 4 4 4 3 3 3 3 3 3 4 4 4 4 5 5 5 4 5 6
4 3 3 3 4 4 4 4 3 3 3 2 3 4 6 6 6 6 7 5 5 5 5 4 4 3 4 3 3 4 4 4 4 4 4 4 5 5 5 5 5 5 6
4 3 3 3 3 3 4 3 3 3 3 3 3 3 4 4 4 5 5 5 5 4 4 4 3 3 3 3 3 4 4 4 4 4 4 4 5 5 5 6 6 6 5
4 4 4 4 3 3 3 3 3 3 3 3 3 2 3 3 4 4 4 4 4 4 3 3 3 3 3 3 4 4 5 5 4 4 4 4 4 5 5 5 6 6 6
3 3 4 4 3 2 2 2 3 3 3 3 2 3 5 4 3 3 3 3 3 3 3 3 3 3 3 4 4 4 5 5 4 4 4 4 5 5 5 5 5 5 6
3 3 3 3 3 3 3 3 3 3 3 3 3 3 3 3 3 3 3 2 2 2 2 2 3 3 3 3 4 4 5 4 4 4 5 5 5 5 5 5 6 6 6
3 3 3 3 3 3 3 2 2 2 3 3 3 3 3 3 3 3 3 2 2 2 2 2 3 3 3 3 3 3 2 4 5 5 6 6 6 5 5 5 6 6 6
2 2 3 3 3 3 3 2 2 2 2 3 3 3 3 3 3 3 3 2 3 2 3 3 2 2 2 3 2 2 3 4 5 6 5 5 5 5 5 6 5 5 5
2 2 2 2 2 2 2 2 2 2 3 3 3 3 3 3 3 3 3 3 3 2 2 2 2 1 2 1 1 3 4 3 4 6 6 5 5 4 5 5 6 5 5
Wind_Direction
163 168 165 168 167 170 169 164 166 165 163 159 157 164 162 151 149 165 174 147 153 161 241 221 247 289 274 255 247 240 237 229 235 236 104 114 167 291 165 237 221 200 162
160 160 159 161 163 163 155 155 158 164 164 155 152 155 153 149 150 158 151 129 149 148 119 53 2 284 261 272 248 245 238 237 239 216 224 167 195 219 215 258 250 219 176
158 157 155 155 156 157 151 153 161 162 156 151 153 153 155 148 148 154 151 142 104 93 103 96 60 0 283 23 293 261 236 214 235 206 208 208 222 171 205 224 234 244 221
161 160 159 159 158 161 160 161 165 160 154 158 156 155 153 146 144 145 139 125 118 107 97 90 71 46 8 288 250 266 246 215 202 207 184 186 200 183 210 221 223 205 235
166 165 165 163 159 160 162 164 166 164 156 148 149 145 143 141 125 134 135 127 126 123 110 98 83 70 48 19 353 6 235 233 213 205 188 185 176 210 240 248 262 256 195
166 168 163 158 153 155 159 157 161 163 154 146 140 135 129 105 71 46 269 137 131 120 109 110 115 99 92 89 45 37 25 344 343 297 189 35 273 271 272 265 268 264 250
166 165 160 159 157 159 158 160 165 161 151 148 147 144 128 101 90 79 335 164 131 115 111 108 94 94 111 96 123 146 100 41 359 327 324 305 281 286 278 262 266 278 285
171 169 166 165 164 162 161 161 166 164 156 153 151 142 132 113 112 112 302 178 142 138 132 123 110 99 88 61 103 97 81 67 66 267 317 302 311 309 270 258 255 252 244
180 176 173 172 169 169 167 168 169 164 162 161 156 151 147 129 125 135 249 172 140 138 138 134 142 140 92 11 150 123 100 86 99 93 47 16 17 331 294 270 268 268 273
184 181 175 176 176 178 174 175 167 163 164 167 162 164 162 148 135 149 233 191 151 153 146 138 102 87 108 234 204 171 156 38 21 118 186 221 222 205 217 251 271 275 285
181 179 174 175 177 176 173 174 168 169 165 172 170 171 168 158 148 156 216 221 182 173 158 143 112 111 109 175 256 229 258 279 255 251 235 232 229 229 228 245 283 290 293
173 174 170 174 180 168 168 173 173 173 172 176 176 178 169 163 159 158 177 219 293 203 201 123 104 122 136 186 225 308 273 271 266 260 257 265 285 275 270 280 293 294 299
168 170 169 172 176 169 173 178 180 182 188 184 186 185 176 166 158 163 178 193 224 219 154 83 104 155 191 200 199 231 244 257 273 281 286 290 303 307 281 255 247 254 260
170 170 174 175 176 176 189 192 195 193 195 196 199 195 183 175 172 168 181 184 187 197 196 158 177 201 216 213 209 221 240 264 278 281 291 291 287 265 259 269 271 264 266
177 178 182 185 181 182 185 196 208 199 219 224 210 200 191 192 160 132 191 198 201 182 217 214 214 213 216 213 214 224 241 244 255 268 275 276 276 271 269 267 266 268 270
186 186 187 189 183 188 180 165 74 82 101 99 295 238 181 138 137 150 173 186 182 192 225 228 231 232 237 236 237 236 241 254 260 262 268 275 281 283 279 271 264 264 268
196 191 195 192 190 194 195 190 177 141 144 164 175 179 185 168 162 172 180 183 196 198 218 231 242 247 249 249 249 253 253 256 262 263 266 271 275 276 277 273 270 271 272
199 186 196 195 195 196 197 202 198 193 188 187 182 178 179 182 183 185 182 186 201 207 227 233 241 249 253 255 258 261 263 260 256 261 265 272 273 271 273 275 273 274 276
197 196 203 203 201 199 201 204 202 203 203 192 176 163 177 181 181 187 189 211 219 224 229 234 241 245 252 256 262 265 263 262 264 261 262 268 271 270 272 275 276 267 273
196 178 213 213 204 199 197 199 198 197 199 196 194 179 167 184 196 192 204 225 232 232 234 238 244 249 254 260 260 263 265 263 264 260 260 261 266 271 272 275 278 278 273
196 181 196 216 209 201 197 197 196 203 203 197 191 149 154 204 212 211 216 225 230 232 235 239 239 246 254 261 265 266 267 267 269 274 275 273 273 273 275 275 275 278 281
199 193 200 208 203 200 186 186 199 208 206 203 195 172 172 218 225 219 220 225 229 234 238 244 245 245 251 259 262 267 268 268 270 275 280 278 275 277 279 278 281 281 278
207 195 192 194 190 173 196 204 204 209 209 209 209 207 203 220 226 227 229 227 228 234 240 243 250 255 264 273 278 279 281 283 283 283 279 277 280 282 283 281 281 283 284
208 196 188 184 193 198 203 210 214 217 220 216 218 221 220 218 226 229 230 228 230 233 242 251 261 267 274 284 285 290 324 330 310 289 279 277 277 281 282 281 281 287 289
203 198 194 193 200 206 207 210 213 216 227 228 227 229 228 227 231 231 228 224 229 236 239 248 255 260 272 284 308 352 33 16 339 318 291 280 283 287 287 285 288 292 295
195 191 200 206 205 213 217 220 222 225 232 232 232 237 237 236 230 227 230 228 222 216 230 242 252 268 278 283 27 45 52 18 337 321 301 286 285 291 298 295 296 293 295
Height
1504 1506 1508 1509 1509 1510 1511 1512 1512 1513 1514 1515 1515 1516 1517 1517 1518 1519 1520 1520 1520 1520 1520 1520 1520 1520 1520 1521 1521 1522 1522 1523 1523 1524 1524 1523 1523 1524 1524 1524 1525 1524 1524
1503 1505 1506 1507 1508 1509 1510 1511 1511 1512 1513 1514 1514 1515 1516 1517 1517 1518 1519 1519 1519 1519 1519 1519 1519 1519 1519 1520 1520 1520 1520 1521 1522 1522 1522 1522 1522 1522 1522 1522 1523 1523 1523
1503 1504 1505 1506 1507 1508 1509 1510 1511 1511 1512 1513 1514 1515 1515 1516 1517 1517 1518 1518 1518 1519 1519 1519 1518 1518 1518 1519 1519 1519 1519 1520 1520 1521 1521 1521 1521 1521 1522 1522 1522 1521 1522
1502 1503 1504 1505 1506 1507 1508 1509 1510 1511 1512 1513 1514 1514 1515 1516 1517 1517 1517 1517 1517 1518 1518 1518 1518 1518 1518 1518 1518 1518 1518 1518 1519 1519 1520 1520 1520 1520 1521 1521 1521 1521 1521
1501 1502 1503 1504 1505 1506 1508 1509 1510 1511 1512 1512 1513 1514 1515 1516 1516 1516 1516 1516 1517 1517 1517 1517 1517 1516 1516 1517 1517 1517 1517 1518 1518 1519 1519 1519 1520 1520 1520 1520 1520 1520 1520
1500 1501 1502 1503 1504 1505 1507 1508 1509 1510 1511 1512 1512 1513 1514 1515 1515 1515 1515 1516 1516 1516 1516 1516 1516 1516 1516 1516 1516 1516 1516 1517 1517 1518 1518 1518 1518 1518 1518 1519 1519 1519 1519
1499 1500 1501 1502 1503 1504 1506 1507 1508 1509 1510 1511 1512 1513 1513 1513 1514 1514 1514 1515 1515 1515 1515 1516 1516 1516 1516 1516 1516 1516 1516 1516 1516 1516 1517 1517 1517 1516 1516 1517 1516 1517 1517
1497 1499 1500 1501 1503 1504 1505 1506 1507 1508 1508 1509 1510 1511 1512 1512 1513 1513 1513 1514 1515 1515 1515 1515 1515 1515 1515 1515 1516 1516 1516 1515 1515 1515 1515 1515 1515 1515 1515 1515 1514 1514 1514
1496 1497 1499 1500 1502 1503 1504 1505 1506 1506 1507 1508 1509 1510 1510 1511 1511 1512 1513 1514 1514 1514 1515 1515 1515 1515 1514 1515 1515 1515 1515 1515 1515 1514 1514 1514 1513 1513 1513 1513 1513 1513 1513
1494 1496 1497 1498 1500 1501 1502 1503 1504 1505 1506 1507 1508 1509 1509 1510 1510 1511 1512 1513 1514 1514 1514 1514 1513 1514 1514 1514 1515 1515 1515 1515 1514 1514 1513 1512 1512 1512 1511 1511 1511 1512 1511
1492 1494 1495 1497 1498 1499 1500 1501 1502 1503 1505 1506 1507 1508 1508 1509 1509 1510 1511 1512 1513 1513 1513 1513 1513 1512 1513 1513 1513 1513 1513 1513 1513 1513 1513 1512 1512 1511 1510 1510 1509 1509 1510
1491 1492 1494 1495 1497 1498 1498 1500 1501 1502 1503 1505 1506 1507 1507 1508 1508 1509 1510 1511 1511 1512 1512 1512 1512 1512 1512 1512 1512 1512 1512 1512 1513 1512 1512 1512 1511 1510 1509 1508 1507 1506 1506
1489 1491 1493 1494 1495 1496 1497 1498 1500 1501 1502 1503 1504 1505 1506 1507 1507 1508 1509 1510 1510 1511 1511 1511 1511 1511 1511 1512 1511 1511 1511 1512 1512 1511 1511 1510 1510 1509 1508 1507 1505 1504 1504
1488 1489 1491 1493 1494 1495 1496 1497 1498 1500 1501 1501 1503 1503 1504 1505 1506 1507 1508 1509 1509 1510 1510 1510 1510 1510 1510 1510 1510 1510 1510 1510 1510 1510 1509 1509 1508 1507 1506 1505 1505 1504 1503
1487 1488 1490 1491 1492 1493 1494 1495 1497 1497 1498 1499 1500 1501 1502 1503 1504 1505 1506 1507 1508 1508 1508 1509 1509 1509 1509 1509 1509 1509 1509 1508 1508 1508 1507 1507 1506 1505 1504 1504 1502 1502 1501
1485 1486 1488 1489 1491 1492 1493 1493 1494 1495 1495 1496 1497 1498 1499 1501 1501 1502 1504 1505 1505 1506 1507 1507 1508 1508 1508 1508 1507 1507 1507 1506 1506 1505 1505 1504 1504 1503 1502 1501 1500 1500 1499
1483 1484 1486 1487 1488 1490 1491 1491 1492 1493 1493 1494 1495 1496 1497 1498 1499 1500 1501 1502 1503 1504 1505 1505 1506 1506 1506 1505 1505 1505 1505 1504 1503 1503 1503 1502 1501 1500 1500 1499 1498 1497 1496
1480 1482 1483 1485 1486 1487 1488 1489 1490 1490 1491 1492 1493 1494 1495 1496 1497 1498 1499 1500 1501 1501 1502 1503 1503 1503 1503 1503 1503 1503 1503 1502 1501 1500 1500 1499 1498 1498 1497 1496 1495 1494 1493
1478 1480 1481 1483 1484 1485 1486 1487 1488 1489 1489 1490 1491 1492 1493 1494 1495 1496 1496 1497 1498 1499 1499 1499 1500 1500 1500 1500 1500 1500 1500 1499 1498 1498 1497 1496 1495 1495 1494 1493 1492 1491 1490
1475 1477 1478 1480 1481 1482 1483 1484 1485 1486 1487 1488 1489 1489 1490 1491 1492 1493 1494 1495 1495 1496 1496 1496 1497 1497 1497 1497 1497 1496 1496 1496 1495 1495 1494 1493 1492 1492 1491 1490 1489 1488 1487
1474 1475 1476 1477 1479 1479 1480 1481 1482 1483 1484 1485 1486 1487 1487 1488 1490 1490 1491 1492 1492 1493 1493 1493 1493 1493 1493 1493 1493 1493 1493 1493 1492 1492 1491 1490 1489 1488 1487 1487 1486 1485 1484
1472 1473 1474 1476 1476 1477 1478 1479 1480 1481 1481 1482 1483 1484 1484 1486 1487 1488 1488 1489 1489 1489 1490 1490 1490 1490 1490 1490 1490 1490 1490 1489 1489 1488 1487 1486 1486 1485 1484 1484 1483 1482 1481
1470 1471 1472 1474 1474 1475 1476 1477 1478 1478 1479 1480 1480 1482 1482 1483 1484 1485 1485 1486 1486 1486 1486 1486 1486 1486 1486 1486 1486 1486 1485 1485 1485 1484 1483 1483 1482 1481 1481 1480 1480 1479 1478
1469 1470 1471 1472 1473 1474 1474 1475 1476 1476 1477 1477 1478 1479 1480 1481 1481 1482 1482 1482 1483 1483 1483 1483 1483 1482 1482 1482 1482 1481 1480 1480 1480 1479 1479 1478 1478 1478 1477 1476 1476 1475 1474
1467 1468 1469 1470 1471 1472 1472 1473 1473 1474 1475 1475 1476 1477 1478 1478 1479 1479 1479 1479 1479 1479 1479 1479 1479 1479 1478 1478 1478 1477 1476 1476 1475 1475 1474 1474 1474 1473 1473 1472 1472 1471 1471
1465 1466 1467 1468 1469 1469 1470 1470 1471 1471 1472 1473 1473 1474 1475 1475 1476 1476 1476 1477 1477 1476 1476 1476 1476 1476 1475 1475 1474 1473 1472 1472 1471 1471 1470 1470 1470 1469 1469 1468 1468 1468 1467